Weather in Anglet

France     43°28′48″N   1°31′31″W
temp.,
°C
wind,
m/s
gust,
m/s
humid.,
%
clouds,
%
prec.,
mm/h
press.,
hPa
HPBL,
m
10 april, sat
sat1023:00+12sse3770100 0.0 1015307
02:00+11sse1271100 0.0 1014109
05:00+11sse247217 0.0 1013162
08:00+10sse2475100 0.0 1013145
11:00+15s2562100 0.0 1012334
14:00+17nw3459100 0.0 1011837
17:00+16nnw456740 0.4 1009433
20:00+13wnw359275 2.3 1010166
11 april, sun
sun1123:00+12ssw119777 4.1 101186
02:00+12wsw239599 5.3 1011228
05:00+12nw5892100 2.5 1012639
08:00+11wnw4693100 4.6 1013432
11:00+11nnw5891100 7.3 1015664
14:00+11nnw4682100 10.4 1018706
17:00+12nnw6669100 0.4 10191098
20:00+10nnw577398 0.6 1021714
12 april, mon
mon1223:00+9nnw5772100 0.8 1024768
02:00+9nw586111 1.1 10251022
05:00+8nw58609 0.2 10261081
08:00+9nnw6968100 0.6 10271191
11:00+8nne57757 0.9 1029908
14:00+10nnw656152 0.9 10301197
17:00+11nnw445816 0.0 1029987
20:00+10nnw356134 0.0 1030456
13 april, tue
tue1323:00+7se33765 0.0 1031108
02:00+5e33820 0.0 1031104
05:00+4ese35844 0.0 1030123
08:00+3e468393 0.0 1030160
11:00+9e58585 0.0 1030680
14:00+13e5640100 0.0 10291346
17:00+14e4743100 0.0 1026927
20:00+12ese4858100 0.0 1026457
14 april, wed
wed1423:00+9e4106798 0.0 1027285
02:00+7e487449 0.0 1026218
05:00+5e478048 0.0 1025182
08:00+4e4684100 0.0 1025150
11:00+10e466196 0.0 1025469
14:00+14e454699 0.0 10241093
17:00+15ne244528 0.0 1022850
20:00+13ese375842 0.0 1021177